EW6430 Weather Reports


time (UTC)temp
F
wind
direction
speed
knots
gust
knots
rain 1hr
in
rain 24hr
in
rain mn
in
humidity
%
barometer
mb
20260508044233 49 51 0.9 3.5 0.06 0.31 0.20 97 1015.2
20260508043732 49 51 0.9 3.5 0.06 0.31 0.20 97 1015.2
20260508043233 49 5 0.0 1.7 0.05 0.29 0.20 97 1015.2
20260508043002 49 5 0.0 2.6 0.05 0.28 0.19 97 1015.2
20260508042213 49 340 0.9 3.5 0.02 0.27 0.17 97 1015.2
20260508041706 49 319 0.9 3.5 0.01 0.25 0.16 97 1015.3
20260508041643 49 319 0.0 3.5 0.02 0.26 0.16 97 1015.3
20260508040654 49 250 0.9 6.1 0.00 0.24 0.14 97 1015.3
20260508040121 49 250 0.0 5.2 0.00 0.24 0.14 97 1015.2
20260508035640 49 263 0.9 6.1 0.00 0.24 0.14 97 1015.0
20260508035138 49 308 1.7 6.1 0.00 0.24 0.14 97 1015.0
20260508034634 49 311 0.9 4.3 0.00 0.24 0.14 97 1014.9
20260508034506 49 307 0.9 4.3 0.00 0.24 0.14 97 1014.8
20260508033620 49 334 1.7 7.0 0.00 0.24 0.14 97 1014.7
20260508033111 50 286 1.7 7.0 0.00 0.24 0.14 97 1014.7
20260508033045 49 286 0.9 7.0 0.00 0.24 0.14 97 1014.6
20260508032056 50 319 1.7 5.2 0.00 0.24 0.14 97 1014.6
20260508031533 49 351 1.7 4.3 0.00 0.24 0.14 97 1014.6
20260508031052 50 302 1.7 8.7 0.00 0.24 0.14 97 1014.7
20260508030546 50 318 2.6 8.7 0.00 0.24 0.14 97 1014.6
20260508030038 50 313 2.6 9.6 0.00 0.24 0.14 97 1014.5
20260508030012 50 313 1.7 9.6 0.00 0.24 0.14 97 1014.5
20260508025525 50 302 3.5 9.6 0.00 0.24 0.14 97 1014.6
20260508025019 50 265 3.5 9.6 0.00 0.24 0.14 97 1014.5
20260508024547 50 308 2.6 9.6 0.00 0.24 0.14 97 1014.4
20260508024507 50 330 3.5 9.6 0.00 0.24 0.14 97 1014.5
20260508023953 51 309 2.6 9.6 0.00 0.24 0.14 97 1014.4
20260508023440 51 304 2.6 9.6 0.00 0.24 0.14 97 1014.3
20260508023006 50 298 3.5 9.6 0.00 0.24 0.14 97 1014.2
20260508022926 51 336 1.7 9.6 0.00 0.24 0.14 97 1014.2
20260508022415 51 302 1.7 8.7 0.00 0.24 0.14 97 1014.2
20260508021857 51 309 1.7 8.7 0.00 0.24 0.14 97 1014.2
20260508021521 50 316 0.9 7.8 0.00 0.24 0.14 97 1014.0
20260508021344 51 317 2.6 7.8 0.00 0.24 0.14 96 1014.1
20260508020832 51 284 1.7 7.8 0.00 0.24 0.14 97 1014.1
20260508020057 50 328 0.9 7.0 0.01 0.24 0.14 97 1013.9
20260508015811 51 319 1.7 7.8 0.01 0.24 0.14 97 1014.1
20260508015300 51 11 1.7 7.8 0.01 0.24 0.14 97 1014.0
20260508014746 51 355 0.9 3.5 0.01 0.24 0.14 97 1014.0
20260508014518 50 296 0.0 3.5 0.01 0.24 0.14 96 1013.8
20260508013721 51 337 0.9 3.5 0.01 0.24 0.14 96 1013.9
20260508013212 51 283 0.9 3.5 0.01 0.24 0.14 96 1013.9
20260508013053 50 282 0.0 3.5 0.01 0.24 0.14 97 1013.8
20260508012146 51 327 0.9 3.5 0.01 0.24 0.14 97 1014.0
20260508011633 51 342 0.9 6.1 0.02 0.24 0.14 97 1014.0
20260508011504 50 342 0.0 5.2 0.02 0.24 0.14 97 1013.8
20260508011121 51 299 1.7 6.1 0.02 0.24 0.14 96 1014.0
20260508010605 51 331 1.7 4.3 0.04 0.24 0.14 96 1013.9
20260508010104 51 315 1.7 7.0 0.04 0.24 0.13 96 1014.0
20260508010040 51 315 0.9 7.0 0.04 0.24 0.13 96 1013.8
20260508004544 51 355 1.7 7.0 0.13 0.24 0.13 96 1013.9
20260508004527 51 355 0.9 7.0 0.12 0.24 0.13 96 1013.8
20260508004035 51 319 1.7 5.2 0.13 0.24 0.13 96 1013.9
20260508003521 51 323 1.7 4.3 0.13 0.24 0.13 96 1014.0
20260508003041 51 313 0.9 5.2 0.13 0.24 0.13 96 1013.9
20260508003017 51 312 1.7 5.2 0.13 0.24 0.13 96 1014.1
20260508001934 52 292 1.7 5.2 0.13 0.23 0.13 96 1014.2
20260508001626 51 291 0.9 5.2 0.13 0.23 0.13 96 1014.0
20260508001422 52 321 1.7 5.2 0.13 0.23 0.13 96 1014.1
20260508000905 52 302 0.9 4.3 0.11 0.21 0.11 96 1014.1
20260508000404 52 301 0.0 3.5 0.10 0.20 0.10 96 1014.1
20260508000028 52 242 0.0 0.9 0.09 0.20 0.09 96 1013.9
20260507235849 52 242 0.0 0.9 0.09 0.19 0.09 96 1014.0
20260507235335 52 242 0.0 4.3 0.05 0.15 0.05 96 1014.1
20260507234819 52 242 1.7 5.2 0.02 0.12 0.02 96 1014.2
20260507234547 52 242 0.0 4.3 0.02 0.12 0.02 96 1014.0
20260507233750 52 302 1.7 6.1 0.01 0.11 0.01 96 1014.1
20260507233237 52 309 1.7 7.8 0.00 0.10 0.00 96 1014.1
20260507233013 52 309 0.9 7.8 0.00 0.10 0.00 96 1013.9
20260507232722 53 319 0.9 6.1 0.00 0.10 0.00 96 1014.1
20260507232206 53 336 0.9 5.2 0.00 0.10 0.00 96 1014.1
20260507231653 53 281 0.9 5.2 0.00 0.10 0.00 96 1014.1
20260507231533 52 281 0.9 4.3 0.00 0.10 0.00 96 1014.0
20260507231137 53 298 0.0 3.5 0.00 0.10 0.00 96 1014.2
20260507230044 53 315 0.0 5.2 0.00 0.10 0.00 96 1013.9
20260507225550 53 317 0.9 5.2 0.00 0.10 0.00 96 1014.0
20260507225034 53 309 0.9 6.1 0.00 0.10 0.00 96 1014.0
20260507224557 53 321 0.9 5.2 0.00 0.10 0.00 96 1013.8
20260507224514 53 321 0.9 6.1 0.00 0.10 0.00 96 1014.0
20260507223958 53 301 0.9 4.3 0.00 0.10 0.00 96 1014.1
20260507223444 54 297 0.0 4.3 0.00 0.10 0.00 96 1014.1
20260507223009 53 300 0.0 3.5 0.00 0.10 0.00 96 1013.8
20260507222928 54 300 0.9 3.5 0.00 0.10 0.00 96 1014.0
20260507222416 54 300 0.9 3.5 0.00 0.10 0.00 96 1014.0
20260507221901 54 317 0.0 3.5 0.00 0.10 0.00 96 1013.9
20260507221635 54 304 0.0 2.6 0.00 0.10 0.00 96 1013.7
20260507221350 54 307 0.0 2.6 0.01 0.10 0.00 96 1014.0
20260507220850 54 302 0.0 1.7 0.01 0.10 0.00 96 1014.0
20260507220337 55 316 0.0 2.6 0.01 0.10 0.00 96 1014.0
20260507220107 54 316 0.0 3.5 0.01 0.10 0.00 96 1013.7
20260507215819 55 317 0.0 3.5 0.01 0.10 0.10 96 1014.0
20260507214818 55 315 0.9 4.3 0.01 0.10 0.10 96 1013.7
20260507214537 54 300 0.0 3.5 0.01 0.10 0.10 96 1013.5
20260507214248 55 323 0.9 3.5 0.01 0.10 0.10 96 1013.6
20260507213002 55 304 2.6 7.0 0.01 0.10 0.10 96 1013.2
20260507212720 55 340 1.7 7.8 0.01 0.10 0.10 96 1013.4
20260507212208 55 309 1.7 7.8 0.01 0.10 0.10 96 1013.4
20260507211654 55 327 1.7 7.8 0.01 0.10 0.10 96 1013.4
20260507211536 55 329 1.7 7.8 0.01 0.10 0.10 95 1013.1
20260507211158 55 309 2.6 7.0 0.00 0.09 0.09 95 1013.3
20260507210639 55 327 2.6 8.7 0.00 0.09 0.09 95 1013.1
20260507210125 55 340 1.7 8.7 0.00 0.09 0.09 96 1013.0
20260507205059 55 308 0.9 3.5 0.00 0.09 0.09 95 1013.1
20260507204544 55 306 0.0 2.6 0.00 0.09 0.09 95 1013.0
20260507204519 55 306 0.0 2.6 0.00 0.09 0.09 95 1012.8
20260507204030 55 240 0.9 2.6 0.00 0.09 0.09 95 1013.0
20260507203039 55 242 0.9 2.6 0.00 0.09 0.09 95 1012.8
20260507203001 55 301 0.0 2.6 0.00 0.09 0.09 95 1013.1
20260507202445 55 342 0.0 2.6 0.00 0.09 0.09 95 1013.0
20260507201931 55 343 0.0 4.3 0.00 0.09 0.09 95 1012.9
20260507201600 55 305 0.0 4.3 0.00 0.09 0.09 95 1012.7
20260507201415 56 305 0.0 4.3 0.00 0.09 0.09 94 1012.9
20260507200901 56 302 0.0 2.6 0.00 0.09 0.09 95 1013.1
20260507200346 56 254 0.9 3.5 0.00 0.09 0.09 94 1013.1
20260507200016 55 254 0.0 6.1 0.00 0.09 0.09 94 1013.0
20260507195832 56 247 2.6 9.6 0.00 0.09 0.09 94 1013.2
20260507195320 56 251 3.5 9.6 0.00 0.09 0.09 94 1013.1
20260507194807 56 245 0.9 7.0 0.01 0.09 0.09 94 1013.0
20260507194535 56 250 0.9 4.3 0.01 0.09 0.09 93 1012.7
20260507194251 57 249 0.0 2.6 0.02 0.09 0.09 94 1012.9
20260507193738 57 346 0.0 1.7 0.03 0.09 0.09 93 1012.8
20260507193228 57 355 0.0 1.7 0.05 0.09 0.09 93 1012.6
20260507193001 56 355 0.0 2.6 0.07 0.09 0.09 93 1012.3
20260507192720 57 355 0.9 3.5 0.09 0.09 0.09 93 1012.5
20260507192213 57 355 0.0 3.5 0.09 0.09 0.09 92 1012.5
20260507191702 57 304 0.0 4.3 0.09 0.09 0.09 92 1012.4
20260507191638 56 308 0.0 1.7 0.09 0.09 0.09 92 1012.2
20260507191153 57 304 0.9 4.3 0.09 0.09 0.09 92 1012.2
20260507190650 57 316 0.9 4.3 0.09 0.09 0.09 91 1012.1
20260507190150 57 329 0.9 3.5 0.09 0.09 0.09 91 1012.2
20260507190025 57 337 0.9 3.5 0.09 0.09 0.09 90 1012.0
20260507185644 58 309 0.0 2.6 0.09 0.09 0.09 90 1012.2
20260507185137 58 307 0.9 3.5 0.09 0.09 0.09 89 1012.1
20260507184631 58 11 0.9 9.6 0.08 0.08 0.09 87 1012.4
20260507184505 58 11 0.0 9.6 0.08 0.08 0.08 87 1012.1
20260507184119 59 298 0.9 9.6 0.07 0.07 0.07 85 1012.4
20260507183613 59 324 0.9 4.3 0.06 0.06 0.06 83 1012.3
20260507183107 60 307 0.9 4.3 0.02 0.02 0.03 81 1012.2
20260507183044 60 307 0.0 4.3 0.03 0.03 0.03 81 1011.9
20260507182554 61 307 0.9 3.5 0.00 0.00 0.00 79 1012.0
20260507182048 61 261 0.9 7.0 0.00 0.00 0.00 78 1012.0
20260507181619 61 302 0.9 7.0 0.00 0.00 0.00 79 1011.5
20260507181548 61 285 0.9 7.0 0.00 0.00 0.00 78 1011.8
20260507181048 61 313 2.6 8.7 0.00 0.00 0.00 78 1011.5
20260507180549 61 333 2.6 8.7 0.00 0.00 0.00 77 1011.3
20260507180119 61 13 2.6 8.7 0.00 0.00 0.00 74 1010.8
20260507180053 61 304 2.6 8.7 0.00 0.00 0.00 74 1011.1
20260507175537 61 5 2.6 8.7 0.00 0.00 0.00 73 1011.1
20260507175031 62 289 0.9 6.1 0.00 0.00 0.00 71 1011.0
20260507174556 61 330 0.0 9.6 0.00 0.00 0.00 71 1010.7
20260507174515 62 330 1.7 9.6 0.00 0.00 0.00 70 1010.9
20260507174004 62 301 2.6 9.6 0.00 0.00 0.00 69 1010.7
20260507173459 62 318 1.7 8.7 0.00 0.00 0.00 68 1010.6
20260507173135 62 304 1.7 7.0 0.00 0.00 0.00 68 1010.3
20260507172951 63 288 0.9 4.3 0.00 0.00 0.00 68 1010.5
20260507172448 63 316 0.9 6.1 0.00 0.00 0.00 67 1010.5
20260507171937 63 312 0.9 6.1 0.00 0.00 0.00 67 1010.4
20260507171513 63 331 0.0 4.3 0.00 0.00 0.00 67 1010.0
20260507170932 64 309 0.9 8.7 0.00 0.00 0.00 67 1010.3
20260507170410 64 291 0.9 8.7 0.00 0.00 0.00 65 1010.2
20260507170047 64 288 1.7 7.0 0.00 0.00 0.00 63 1009.8
20260507165902 65 310 0.9 7.0 0.00 0.00 0.00 62 1010.1
20260507165351 65 275 0.9 7.0 0.00 0.00 0.00 60 1010.0
20260507164837 65 246 0.9 5.2 0.00 0.00 0.00 59 1010.0
20260507164502 65 259 0.9 8.7 0.00 0.00 0.00 59 1009.6
20260507164325 66 257 2.6 11.3 0.00 0.00 0.00 60 1009.9
20260507163811 66 251 3.5 11.3 0.00 0.00 0.00 59 1009.9
20260507163259 67 243 4.3 8.7 0.00 0.00 0.00 63 1009.7
20260507163027 66 239 3.5 8.7 0.00 0.00 0.00 63 1009.2
20260507162748 67 232 4.3 8.7 0.00 0.00 0.00 62 1009.6
20260507162235 67 222 3.5 7.0 0.00 0.00 0.00 62 1009.5
20260507161720 67 222 2.6 7.0 0.00 0.00 0.00 62 1009.5
20260507161556 66 194 1.7 7.0 0.00 0.00 0.00 62 1009.2
20260507161211 67 255 2.6 7.0 0.00 0.00 0.00 61 1009.5
20260507160651 67 223 3.5 7.8 0.00 0.00 0.00 61 1009.4
20260507160130 67 275 4.3 9.6 0.00 0.00 0.00 61 1009.5
20260507160007 67 174 2.6 9.6 0.00 0.00 0.00 61 1009.1
20260507155107 67 212 4.3 9.6 0.00 0.00 0.00 61 1009.6
20260507154558 67 198 4.3 8.7 0.00 0.00 0.00 61 1009.5
20260507154532 67 198 2.6 8.7 0.00 0.00 0.00 60 1009.1
20260507154044 68 195 4.3 8.7 0.00 0.00 0.00 61 1009.5
20260507153533 68 175 4.3 12.2 0.00 0.00 0.00 60 1009.6
20260507153200 67 265 3.5 12.2 0.00 0.00 0.00 60 1009.2
20260507152007 68 180 4.3 10.4 0.00 0.00 0.00 61 1009.6
20260507151532 68 208 4.3 10.4 0.00 0.00 0.00 61 1009.1
20260507151454 68 283 3.5 10.4 0.00 0.00 0.00 61 1009.5
20260507150945 68 232 3.5 10.4 0.00 0.00 0.00 61 1009.4
20260507150430 68 202 3.5 6.1 0.00 0.00 0.00 61 1009.4
20260507150056 68 259 2.6 8.7 0.00 0.00 0.00 62 1009.0
20260507145916 69 165 3.5 8.7 0.00 0.00 0.00 61 1009.4
20260507145402 69 243 4.3 9.6 0.00 0.00 0.00 60 1009.4
20260507144851 69 223 4.3 9.6 0.00 0.00 0.00 60 1009.3
20260507144520 69 246 3.5 7.8 0.00 0.00 0.00 60 1009.0
20260507144341 69 217 4.3 8.7 0.00 0.00 0.00 60 1009.4
20260507143824 69 211 3.5 8.7 0.00 0.00 0.00 59 1009.4
20260507143314 69 203 4.3 9.6 0.00 0.00 0.00 60 1009.3
20260507143046 69 246 2.6 9.6 0.00 0.00 0.00 60 1009.0
20260507142803 69 198 4.3 9.6 0.00 0.00 0.00 60 1009.4
20260507142249 69 177 4.3 9.6 0.00 0.00 0.00 60 1009.4
20260507141610 69 219 6.1 10.4 0.00 0.00 0.00 59 1008.9
20260507140706 69 261 4.3 9.6 0.00 0.00 0.00 58 1009.4
20260507140150 69 223 5.2 9.6 0.00 0.00 0.00 57 1009.3
20260507140127 69 205 4.3 8.7 0.00 0.00 0.00 57 1008.9
20260507135130 70 196 5.2 10.4 0.00 0.00 0.00 56 1009.3
20260507134615 70 257 5.2 10.4 0.00 0.00 0.00 58 1009.3
20260507134553 69 257 4.3 10.4 0.00 0.00 0.00 59 1008.9
20260507134101 69 222 4.3 10.4 0.00 0.00 0.00 58 1009.3
20260507133544 69 152 3.5 10.4 0.00 0.00 0.00 59 1009.3
20260507133030 69 148 4.3 8.7 0.00 0.00 0.00 59 1009.4
20260507133004 68 190 1.7 7.8 0.00 0.00 0.00 59 1009.0
20260507132515 69 245 2.6 8.7 0.00 0.00 0.00 58 1009.5
20260507131954 69 241 1.7 8.7 0.00 0.00 0.00 58 1009.5
20260507131622 69 235 0.0 4.3 0.00 0.00 0.00 59 1009.0
20260507131443 69 235 2.6 6.1 0.00 0.00 0.00 59 1009.5
20260507130930 69 273 3.5 8.7 0.00 0.00 0.00 59 1009.6
20260507130417 69 211 3.5 8.7 0.00 0.00 0.00 58 1009.6
20260507130053 69 228 2.6 7.0 0.00 0.00 0.00 58 1009.1
20260507125903 69 219 3.5 8.7 0.00 0.00 0.00 57 1009.6
20260507125347 69 238 3.5 8.7 0.00 0.00 0.00 57 1009.5
20260507124559 69 227 1.7 9.6 0.00 0.00 0.00 58 1009.1
20260507124316 69 232 3.5 10.4 0.00 0.00 0.00 57 1009.6
20260507123802 69 175 3.5 7.8 0.00 0.00 0.00 58 1009.6
20260507123015 68 250 4.3 9.6 0.00 0.00 0.00 59 1009.1
20260507122732 68 231 4.3 9.6 0.00 0.00 0.00 60 1009.6
20260507122216 68 242 4.3 12.2 0.00 0.00 0.00 60 1009.6
20260507121702 68 244 4.3 12.2 0.00 0.00 0.00 61 1009.6
20260507121534 68 238 1.7 12.2 0.00 0.00 0.00 61 1009.2
20260507121149 68 242 5.2 13.9 0.00 0.00 0.00 61 1009.7
20260507120650 68 254 3.5 13.9 0.00 0.00 0.00 61 1009.7
20260507120137 69 245 3.5 9.6 0.00 0.00 0.00 62 1009.6
20260507120023 68 277 0.9 8.7 0.00 0.00 0.00 62 1009.2
20260507115623 68 250 3.5 9.6 0.00 0.00 0.00 61 1009.7
20260507115109 69 253 2.6 7.8 0.00 0.00 0.00 61 1009.7
20260507114556 69 249 2.6 9.6 0.00 0.00 0.00 62 1009.6
20260507114533 68 249 0.9 9.6 0.00 0.00 0.00 63 1009.2
20260507114044 69 255 2.6 9.6 0.00 0.00 0.00 63 1009.6
20260507113541 69 302 1.7 8.7 0.00 0.00 0.00 63 1009.6
20260507113010 68 227 0.9 7.8 0.00 0.00 0.00 65 1009.1
20260507112519 68 202 1.7 7.0 0.00 0.00 0.00 66 1009.6
20260507112017 68 224 2.6 7.8 0.00 0.00 0.00 65 1009.6
20260507111550 68 242 0.9 7.8 0.00 0.00 0.00 66 1009.2
20260507111513 68 200 3.5 9.6 0.00 0.00 0.00 65 1009.6
20260507111019 68 111 3.5 9.6 0.00 0.00 0.00 66 1009.6
20260507110026 67 248 3.5 7.8 0.00 0.00 0.00 67 1009.1
20260507105948 68 215 5.2 7.8 0.00 0.00 0.00 67 1009.6
20260507105436 68 238 4.3 8.7 0.00 0.00 0.00 67 1009.5
20260507104926 68 216 3.5 7.0 0.00 0.00 0.00 67 1009.6
20260507103911 67 227 4.3 7.0 0.00 0.00 0.00 67 1009.6
20260507103408 67 222 3.5 9.6 0.00 0.00 0.00 67 1009.6
20260507103052 67 194 4.3 9.6 0.00 0.00 0.00 66 1009.1
20260507102910 68 141 2.6 7.8 0.00 0.00 0.00 66 1009.5
20260507102401 68 242 0.9 7.0 0.00 0.00 0.00 66 1009.5
20260507101858 68 250 1.7 7.0 0.00 0.00 0.00 66 1009.5
20260507101527 67 299 0.0 7.8 0.00 0.00 0.00 67 1009.0
20260507101345 68 227 1.7 7.8 0.00 0.00 0.00 66 1009.4
20260507100842 67 288 1.7 7.8 0.00 0.00 0.00 67 1009.4
20260507100342 67 227 3.5 10.4 0.00 0.00 0.00 67 1009.4
20260507100010 67 227 2.6 10.4 0.00 0.00 0.00 66 1008.9
20260507095322 68 226 2.6 7.0 0.00 0.00 0.00 66 1009.4
20260507094546 67 246 2.6 6.1 0.00 0.00 0.00 66 1008.9
20260507094300 67 171 3.5 9.6 0.00 0.00 0.00 68 1009.3
20260507093759 67 234 2.6 9.6 0.00 0.00 0.00 68 1009.3
20260507093248 66 298 2.6 7.0 0.00 0.00 0.00 70 1009.3
20260507093017 66 224 0.9 7.0 0.00 0.00 0.00 70 1008.8
20260507092737 66 244 2.6 7.0 0.00 0.00 0.00 70 1009.3
20260507092228 67 255 3.5 9.6 0.00 0.00 0.00 69 1009.3
20260507091726 67 242 3.5 9.6 0.00 0.00 0.00 70 1009.1
20260507091505 66 247 5.2 9.6 0.00 0.00 0.00 69 1008.8
20260507091222 67 209 2.6 9.6 0.00 0.00 0.00 69 1009.1
20260507090724 67 217 2.6 7.8 0.00 0.00 0.00 69 1009.0
20260507090158 66 269 3.5 7.8 0.00 0.00 0.00 71 1009.0
20260507090033 66 244 3.5 7.0 0.00 0.00 0.00 71 1008.6
20260507085643 66 192 3.5 9.6 0.00 0.00 0.00 71 1008.9
20260507085134 66 235 4.3 9.6 0.00 0.00 0.00 71 1008.9
20260507084621 65 266 3.5 8.7 0.00 0.00 0.00 73 1008.8
20260507084558 65 266 2.6 8.7 0.00 0.00 0.00 71 1008.4
20260507084109 65 242 3.5 8.7 0.00 0.00 0.00 73 1008.8
20260507083557 65 215 4.3 7.8 0.00 0.00 0.00 73 1008.7
20260507083045 65 205 3.5 7.0 0.00 0.00 0.00 74 1008.7
20260507083026 64 203 4.3 7.0 0.00 0.00 0.00 74 1008.3
20260507082542 64 286 3.5 8.7 0.00 0.00 0.00 76 1008.7
20260507082029 64 242 3.5 8.7 0.00 0.00 0.00 75 1008.7
20260507081602 64 248 4.3 7.8 0.00 0.00 0.00 75 1008.4
20260507081518 64 235 3.5 8.7 0.00 0.00 0.00 75 1008.7
20260507081006 64 242 4.3 9.6 0.00 0.00 0.00 75 1008.7
20260507080508 64 256 3.5 9.6 0.00 0.00 0.00 75 1008.7
20260507080033 64 241 3.5 9.6 0.00 0.00 0.00 75 1008.2
20260507075956 64 254 3.5 9.6 0.00 0.00 0.00 76 1008.6
20260507075445 64 268 4.3 10.4 0.00 0.00 0.00 76 1008.6
20260507074932 63 203 4.3 10.4 0.00 0.00 0.00 78 1008.6
20260507074610 62 234 4.3 10.4 0.00 0.00 0.00 78 1008.2
20260507074420 63 266 4.3 9.6 0.00 0.00 0.00 79 1008.6
20260507073909 62 246 5.2 10.4 0.00 0.00 0.00 79 1008.5
20260507073023 62 277 4.3 10.4 0.00 0.00 0.00 79 1008.1
20260507072332 62 291 4.3 12.2 0.00 0.00 0.00 80 1008.4
20260507071818 62 225 4.3 12.2 0.00 0.00 0.00 80 1008.3
20260507071547 62 199 3.5 9.6 0.00 0.00 0.00 81 1007.9
20260507071305 62 240 3.5 7.8 0.00 0.00 0.00 81 1008.2
20260507070754 62 236 3.5 9.6 0.00 0.00 0.00 82 1008.2
20260507070012 61 248 4.3 8.7 0.00 0.00 0.00 81 1007.9
20260507065728 62 218 2.6 8.7 0.00 0.00 0.00 82 1008.1
20260507064531 60 244 4.3 7.0 0.00 0.00 0.00 83 1007.6
20260507064144 60 217 4.3 9.6 0.00 0.00 0.00 83 1008.0
20260507063630 60 237 4.3 9.6 0.00 0.00 0.00 83 1008.0
20260507063118 60 200 3.5 9.6 0.00 0.00 0.00 83 1007.9
20260507063051 60 191 5.2 9.6 0.00 0.00 0.00 83 1007.6
20260507062607 60 190 3.5 7.8 0.00 0.00 0.00 84 1007.9
20260507062054 60 214 3.5 8.7 0.00 0.00 0.00 84 1007.9
20260507061542 60 190 2.6 8.7 0.00 0.00 0.00 84 1007.9
20260507061515 59 186 1.7 8.7 0.00 0.00 0.00 84 1007.5
20260507061039 60 258 2.6 7.8 0.00 0.00 0.00 84 1007.9
20260507060529 60 248 2.6 7.0 0.00 0.00 0.00 85 1007.8
20260507060043 59 257 2.6 7.0 0.00 0.00 0.00 85 1007.4
20260507060007 60 230 1.7 7.0 0.00 0.00 0.00 85 1007.8
20260507055452 60 232 1.7 6.1 0.00 0.00 0.00 86 1007.8
20260507054938 60 231 2.6 6.1 0.00 0.00 0.00 86 1007.7
20260507054503 59 202 2.6 6.1 0.00 0.00 0.00 87 1007.2
20260507053911 59 248 1.7 6.1 0.00 0.00 0.00 88 1007.5
20260507053025 58 239 0.0 2.6 0.00 0.00 0.00 90 1006.9
20260507052845 58 239 0.9 2.6 0.00 0.00 0.00 90 1007.3
20260507051810 57 205 0.0 3.5 0.00 0.00 0.00 91 1007.2
20260507051539 57 226 0.0 2.6 0.00 0.00 0.00 91 1006.9
20260507050743 57 236 0.9 3.5 0.00 0.00 0.00 91 1007.2
20260507050229 57 237 1.7 3.5 0.00 0.00 0.00 91 1007.2
20260507050100 56 237 0.0 3.5 0.00 0.00 0.00 91 1006.8
20260507045713 57 242 0.9 3.5 0.00 0.00 0.00 92 1007.2
20260507044646 57 242 0.0 0.9 0.00 0.00 0.00 92 1007.1
20260507044620 56 242 0.0 0.9 0.00 0.00 0.00 92 1006.6